User: anonymous   Login
Location: Unspecified
(0.0000°N, 0.0000°E)
Time: 17:12:11
(UTC+00:00)
Language:

STSS DEMO 2 (USA 209) - Orbit

View from above orbital plane
View from above orbital plane
View from above satellite
View from above satellite

Ground track
Ground track

The orbit data is extracted from the following two-line orbital elements,

1 35938U 09052B   15187.87621838 0.00000020  00000-0  88715-4 0    07
2 35938  57.9866 146.9788 0010652 278.0832  81.9167 12.79146755    07
Epoch (UTC): 06 July 2015 21:01:45
Eccentricity: 0.0010652
inclination: 57.9866°
perigee height: 1336 km
apogee height: 1353 km
right ascension of ascending node: 146.9788°
argument of perigee: 278.0832°
revolutions per day: 12.79146755
mean anomaly at epoch: 81.9167°
orbit number at epoch: 0

The dashed part of the orbit path shows where the satellite is in the earth's shadow,  

DLR